Year,Month,Day,Hour,Minute,Value (Times are PST for temperature in C)
2010,09,19,00,00,14.20
2010,09,19,00,01,14.20
2010,09,19,00,02,14.20
2010,09,19,00,03,14.20
2010,09,19,00,04,14.20
2010,09,19,00,05,14.20
2010,09,19,00,06,14.20
2010,09,19,00,07,14.10
2010,09,19,00,08,14.20
2010,09,19,00,09,14.20
2010,09,19,00,10,14.20
2010,09,19,00,11,14.10
2010,09,19,00,12,14.10
2010,09,19,00,13,14.10
2010,09,19,00,14,14.10
2010,09,19,00,15,14.10
2010,09,19,00,16,14.10
2010,09,19,00,17,14.10
2010,09,19,00,18,14.10
2010,09,19,00,19,14.10
2010,09,19,00,20,14.10
2010,09,19,00,21,14.10
2010,09,19,00,22,14.10
2010,09,19,00,23,14.10
2010,09,19,00,24,14.10
2010,09,19,00,25,14.10
2010,09,19,00,26,14.10
2010,09,19,00,27,14.10
2010,09,19,00,28,14.10
2010,09,19,00,29,14.20
2010,09,19,00,30,14.20
2010,09,19,00,31,14.20
2010,09,19,00,32,14.20
2010,09,19,00,33,14.20
2010,09,19,00,34,14.20
2010,09,19,00,35,14.20
2010,09,19,00,36,14.20
2010,09,19,00,37,14.20
2010,09,19,00,38,14.20
2010,09,19,00,39,14.20
2010,09,19,00,40,14.20
2010,09,19,00,41,14.20
2010,09,19,08,53,15.00
2010,09,19,08,54,15.00
2010,09,19,08,55,15.00
2010,09,19,08,56,15.00
2010,09,19,08,57,15.10
2010,09,19,08,58,15.10
2010,09,19,08,59,15.00
2010,09,19,09,00,15.00
2010,09,19,09,01,15.00
2010,09,19,09,02,15.00
2010,09,19,09,03,15.00
2010,09,19,09,04,15.00
2010,09,19,09,05,15.00
2010,09,19,09,06,15.00
2010,09,19,09,07,15.00
2010,09,19,09,08,15.10
2010,09,19,09,09,15.20
2010,09,19,09,10,15.30
2010,09,19,09,11,15.30
2010,09,19,09,12,15.30
2010,09,19,09,13,15.30
2010,09,19,09,14,15.30
2010,09,19,09,15,15.30
2010,09,19,09,16,15.30
2010,09,19,09,17,15.40
2010,09,19,09,18,15.50
2010,09,19,09,19,15.60
2010,09,19,09,20,15.50
2010,09,19,09,21,15.40
2010,09,19,09,22,15.40
2010,09,19,09,23,15.40
2010,09,19,09,24,15.40
2010,09,19,09,25,15.40
2010,09,19,09,26,15.40
2010,09,19,09,27,15.50
2010,09,19,09,28,15.40
2010,09,19,09,29,15.40
2010,09,19,09,30,15.30
2010,09,19,09,31,15.30
2010,09,19,09,32,15.30
2010,09,19,09,33,15.40
2010,09,19,09,34,15.50
2010,09,19,09,35,15.60
2010,09,19,09,36,15.60
2010,09,19,09,37,15.60
2010,09,19,09,38,15.50
2010,09,19,09,39,15.40
2010,09,19,09,40,15.40
2010,09,19,09,41,15.40
2010,09,19,09,42,15.30
2010,09,19,09,43,15.30
2010,09,19,09,44,15.40
2010,09,19,09,45,15.40
2010,09,19,09,46,15.40
2010,09,19,09,47,15.30
2010,09,19,09,48,15.30
2010,09,19,09,49,15.30
2010,09,19,09,50,15.30
2010,09,19,09,51,15.30
2010,09,19,09,52,15.40
2010,09,19,09,53,15.40
2010,09,19,09,54,15.40
2010,09,19,09,55,15.30
2010,09,19,09,56,15.30
2010,09,19,09,57,15.30
2010,09,19,09,58,15.40
2010,09,19,09,59,15.40
2010,09,19,10,00,15.40
2010,09,19,10,01,15.40
2010,09,19,10,02,15.50
2010,09,19,10,03,15.60
2010,09,19,10,04,15.60
2010,09,19,10,05,15.70
2010,09,19,10,06,15.80
2010,09,19,10,07,15.80
2010,09,19,10,08,15.90
2010,09,19,10,09,16.00
2010,09,19,10,10,16.20
2010,09,19,10,11,16.30
2010,09,19,10,12,16.40
2010,09,19,10,13,16.40
2010,09,19,10,14,16.30
2010,09,19,10,15,16.30
2010,09,19,10,16,16.30
2010,09,19,10,17,16.30
2010,09,19,10,18,16.40
2010,09,19,10,19,16.50
2010,09,19,10,20,16.50
2010,09,19,10,21,16.60
2010,09,19,10,22,16.70
2010,09,19,10,23,16.80
2010,09,19,10,24,16.80
2010,09,19,10,25,16.80
2010,09,19,10,26,16.70
2010,09,19,10,27,16.80
2010,09,19,10,28,16.70
2010,09,19,10,29,16.70
2010,09,19,10,30,16.70
2010,09,19,10,31,16.60
2010,09,19,10,32,16.60
2010,09,19,10,33,16.60
2010,09,19,10,34,16.60
2010,09,19,10,35,16.60
2010,09,19,10,36,16.60
2010,09,19,10,37,16.60
2010,09,19,10,38,16.60
2010,09,19,10,39,16.70
2010,09,19,10,40,16.70
2010,09,19,10,41,16.80
2010,09,19,10,42,16.80
2010,09,19,10,43,16.80
2010,09,19,10,44,16.80
2010,09,19,10,45,16.80
2010,09,19,10,46,16.80
2010,09,19,10,47,16.80
2010,09,19,10,48,16.80
2010,09,19,10,49,16.70
2010,09,19,10,50,16.70
2010,09,19,10,51,16.60
2010,09,19,10,52,16.60
2010,09,19,10,53,16.60
2010,09,19,10,54,16.60
2010,09,19,10,55,16.50
2010,09,19,10,56,16.50
2010,09,19,10,57,16.50
2010,09,19,10,58,16.40
2010,09,19,10,59,16.40
2010,09,19,11,00,16.40
2010,09,19,11,01,16.30
2010,09,19,11,02,16.30
2010,09,19,11,03,16.30
2010,09,19,11,04,16.30
2010,09,19,11,05,16.30
2010,09,19,11,06,16.30
2010,09,19,11,07,16.30
2010,09,19,11,08,16.30
2010,09,19,11,09,16.40
2010,09,19,11,10,16.50
2010,09,19,11,11,16.60
2010,09,19,11,12,16.70
2010,09,19,11,13,16.80
2010,09,19,11,14,17.00
2010,09,19,11,15,17.10
2010,09,19,11,16,17.20
2010,09,19,11,17,17.30
2010,09,19,11,18,17.40
2010,09,19,11,19,17.60
2010,09,19,11,20,17.70
2010,09,19,11,21,17.80
2010,09,19,11,22,17.80
2010,09,19,11,23,17.90
2010,09,19,11,24,17.90
2010,09,19,11,25,18.10
2010,09,19,11,26,18.10
2010,09,19,11,27,18.20
2010,09,19,11,28,18.30
2010,09,19,11,29,18.30
2010,09,19,11,30,18.50
2010,09,19,11,31,18.50
2010,09,19,11,32,18.60
2010,09,19,11,33,18.60
2010,09,19,11,34,18.70
2010,09,19,11,35,18.70
2010,09,19,11,36,18.70
2010,09,19,11,37,18.70
2010,09,19,11,38,18.60
2010,09,19,11,39,18.70
2010,09,19,11,40,18.70
2010,09,19,11,41,18.60
2010,09,19,11,42,18.50
2010,09,19,11,43,18.40
2010,09,19,11,44,18.40
2010,09,19,11,45,18.40
2010,09,19,11,46,18.40
2010,09,19,11,47,18.40
2010,09,19,11,48,18.40
2010,09,19,11,49,18.40
2010,09,19,11,50,18.40
2010,09,19,11,51,18.40
2010,09,19,11,52,18.30
2010,09,19,11,53,18.40
2010,09,19,11,54,18.30
2010,09,19,11,55,18.30
2010,09,19,11,56,18.30
2010,09,19,11,57,18.30
2010,09,19,11,58,18.30
2010,09,19,11,59,18.30
2010,09,19,12,00,18.30
2010,09,19,12,01,18.30
2010,09,19,12,02,18.30
2010,09,19,12,03,18.40
2010,09,19,12,04,18.40
2010,09,19,12,05,18.40
2010,09,19,12,06,18.50
2010,09,19,12,07,18.50
2010,09,19,12,08,18.50
2010,09,19,12,09,18.40
2010,09,19,12,10,18.40
2010,09,19,12,11,18.30
2010,09,19,12,12,18.20
2010,09,19,12,13,18.20
2010,09,19,12,14,18.20
2010,09,19,12,15,18.20
2010,09,19,12,16,18.20
2010,09,19,12,17,18.30
2010,09,19,12,18,18.30
2010,09,19,12,19,18.30
2010,09,19,12,20,18.40
2010,09,19,12,21,18.40
2010,09,19,12,22,18.40
2010,09,19,12,23,18.40
2010,09,19,12,24,18.40
2010,09,19,12,25,18.50
2010,09,19,12,26,18.50
2010,09,19,12,27,18.50
2010,09,19,12,28,18.50
2010,09,19,12,29,18.50
2010,09,19,12,30,18.50
2010,09,19,12,31,18.40
2010,09,19,12,32,18.40
2010,09,19,12,33,18.30
2010,09,19,12,34,18.30
2010,09,19,12,35,18.30
2010,09,19,12,36,18.30
2010,09,19,12,37,18.30
2010,09,19,12,38,18.30
2010,09,19,12,39,18.40
2010,09,19,12,40,18.40
2010,09,19,12,41,18.50
2010,09,19,12,42,18.60
2010,09,19,12,43,18.60
2010,09,19,12,44,18.70
2010,09,19,12,45,18.70
2010,09,19,12,46,18.80
2010,09,19,12,47,18.80
2010,09,19,12,48,18.90
2010,09,19,12,49,18.90
2010,09,19,12,50,18.90
2010,09,19,12,51,18.90
2010,09,19,12,52,18.90
2010,09,19,12,53,18.90
2010,09,19,12,54,19.00
2010,09,19,12,55,19.00
2010,09,19,12,56,19.00
2010,09,19,12,57,19.10
2010,09,19,12,58,19.10
2010,09,19,12,59,19.10
2010,09,19,13,00,19.20
2010,09,19,13,01,19.20
2010,09,19,13,02,19.30
2010,09,19,13,03,19.30
2010,09,19,13,04,19.30
2010,09,19,13,05,19.30
2010,09,19,13,06,19.30
2010,09,19,13,07,19.30
2010,09,19,13,08,19.30
2010,09,19,13,09,19.20
2010,09,19,13,10,19.20
2010,09,19,13,11,19.20
2010,09,19,13,12,19.20
2010,09,19,13,13,19.10
2010,09,19,13,14,19.10
2010,09,19,13,15,19.00
2010,09,19,13,16,19.00
2010,09,19,13,17,18.90
2010,09,19,13,18,19.00
2010,09,19,13,19,19.00
2010,09,19,13,20,19.00
2010,09,19,13,21,19.00
2010,09,19,13,22,19.00
2010,09,19,13,23,19.00
2010,09,19,13,24,19.00
2010,09,19,13,25,19.00
2010,09,19,13,26,18.90
2010,09,19,13,27,18.90
2010,09,19,13,28,18.90
2010,09,19,13,29,19.00
2010,09,19,13,30,19.00
2010,09,19,13,31,19.00
2010,09,19,13,32,19.10
2010,09,19,13,33,19.10
2010,09,19,13,34,19.10
2010,09,19,13,35,19.10
2010,09,19,13,36,19.20
2010,09,19,13,37,19.20
2010,09,19,13,38,19.10
2010,09,19,13,39,19.00
2010,09,19,13,40,19.00
2010,09,19,13,41,19.00
2010,09,19,13,42,18.90
2010,09,19,13,43,18.90
2010,09,19,13,44,18.90
2010,09,19,13,45,18.90
2010,09,19,13,46,18.90
2010,09,19,13,47,18.90
2010,09,19,13,48,18.80
2010,09,19,13,49,18.80
2010,09,19,13,50,18.80
2010,09,19,13,51,18.70
2010,09,19,13,52,18.70
2010,09,19,13,53,18.60
2010,09,19,13,54,18.60
2010,09,19,13,55,18.50
2010,09,19,13,56,18.50
2010,09,19,13,57,18.50
2010,09,19,13,58,18.50
2010,09,19,13,59,18.50
2010,09,19,14,00,18.50
2010,09,19,14,01,18.40
2010,09,19,14,02,18.40
2010,09,19,14,03,18.40
2010,09,19,14,04,18.40
2010,09,19,14,05,18.40
2010,09,19,14,06,18.40
2010,09,19,14,07,18.40
2010,09,19,14,08,18.40
2010,09,19,14,09,18.40
2010,09,19,14,10,18.40
2010,09,19,14,11,18.40
2010,09,19,14,12,18.40
2010,09,19,14,13,18.40
2010,09,19,14,14,18.30
2010,09,19,14,15,18.30
2010,09,19,14,16,18.20
2010,09,19,14,17,18.20
2010,09,19,14,18,18.10
2010,09,19,14,19,18.10
2010,09,19,14,20,18.00
2010,09,19,14,21,18.00
2010,09,19,14,22,17.90
2010,09,19,14,23,18.00
2010,09,19,14,24,18.00
2010,09,19,14,25,18.00
2010,09,19,14,26,17.90
2010,09,19,14,27,17.90
2010,09,19,14,28,17.90
2010,09,19,14,29,17.90
2010,09,19,14,30,17.90
2010,09,19,14,31,17.90
2010,09,19,14,32,17.90
2010,09,19,14,33,17.90
2010,09,19,14,34,17.90
2010,09,19,14,35,18.00
2010,09,19,14,36,17.90
2010,09,19,14,37,17.90
2010,09,19,14,38,17.90
2010,09,19,14,39,18.00
2010,09,19,14,40,18.00
2010,09,19,14,41,18.00
2010,09,19,14,42,18.00
2010,09,19,14,43,18.00
2010,09,19,14,44,18.10
2010,09,19,14,45,18.10
2010,09,19,14,46,18.10
2010,09,19,14,47,18.10
2010,09,19,14,48,18.10
2010,09,19,14,49,18.10
2010,09,19,14,50,18.20
2010,09,19,14,51,18.20
2010,09,19,14,52,18.20
2010,09,19,14,53,18.20
2010,09,19,14,54,18.20
2010,09,19,14,55,18.30
2010,09,19,14,56,18.30
2010,09,19,14,57,18.40
2010,09,19,14,58,18.50
2010,09,19,14,59,18.60
2010,09,19,15,00,18.70
2010,09,19,15,01,18.80
2010,09,19,15,02,18.90
2010,09,19,15,03,18.90
2010,09,19,15,04,19.00
2010,09,19,15,05,19.00
2010,09,19,15,06,19.10
2010,09,19,15,07,19.10
2010,09,19,15,08,19.10
2010,09,19,15,09,19.20
2010,09,19,15,10,19.20
2010,09,19,15,11,19.20
2010,09,19,15,12,19.30
2010,09,19,15,13,19.30
2010,09,19,15,14,19.40
2010,09,19,15,15,19.40
2010,09,19,15,16,19.40
2010,09,19,15,17,19.40
2010,09,19,15,18,19.40
2010,09,19,15,19,19.40
2010,09,19,15,20,19.50
2010,09,19,15,21,19.50
2010,09,19,15,22,19.50
2010,09,19,15,23,19.50
2010,09,19,15,24,19.50
2010,09,19,15,25,19.50
2010,09,19,15,26,19.50
2010,09,19,15,27,19.50
2010,09,19,15,28,19.60
2010,09,19,15,29,19.60
2010,09,19,15,30,19.60
2010,09,19,15,31,19.60
2010,09,19,15,32,19.70
2010,09,19,15,33,19.70
2010,09,19,15,34,19.70
2010,09,19,15,35,19.80
2010,09,19,15,36,19.80
2010,09,19,15,37,19.80
2010,09,19,15,38,19.80
2010,09,19,15,39,19.80
2010,09,19,15,40,19.90
2010,09,19,15,41,19.90
2010,09,19,15,42,19.90
2010,09,19,15,43,19.90
2010,09,19,15,44,19.90
2010,09,19,15,45,19.90
2010,09,19,15,46,19.90
2010,09,19,15,47,19.90
2010,09,19,15,48,19.90
2010,09,19,15,49,19.90
2010,09,19,15,50,19.90
2010,09,19,15,51,19.90
2010,09,19,15,52,20.00
2010,09,19,15,53,19.90
2010,09,19,15,54,19.90
2010,09,19,15,55,19.90
2010,09,19,15,56,19.70
2010,09,19,15,57,19.70
2010,09,19,15,58,19.50
2010,09,19,15,59,19.50
2010,09,19,16,00,19.40
2010,09,19,16,01,19.40
2010,09,19,16,02,19.40
2010,09,19,16,03,19.30
2010,09,19,16,04,19.30
2010,09,19,16,05,19.30
2010,09,19,16,06,19.20
2010,09,19,16,07,19.20
2010,09,19,16,08,19.20
2010,09,19,16,09,19.20
2010,09,19,16,10,19.20
2010,09,19,16,11,19.10
2010,09,19,16,12,19.10
2010,09,19,16,13,19.10
2010,09,19,16,14,19.10
2010,09,19,16,15,19.10
2010,09,19,16,16,19.10
2010,09,19,16,17,19.10
2010,09,19,16,18,19.10
2010,09,19,16,19,19.10
2010,09,19,16,20,19.10
2010,09,19,16,21,19.10
2010,09,19,16,22,19.10
2010,09,19,16,23,19.10
2010,09,19,16,24,19.10
2010,09,19,16,25,19.20
2010,09,19,16,26,19.20
2010,09,19,16,27,19.20
2010,09,19,16,28,19.20
2010,09,19,16,29,19.20
2010,09,19,16,30,19.20
2010,09,19,16,31,19.20
2010,09,19,16,32,19.30
2010,09,19,16,33,19.30
2010,09,19,16,34,19.30
2010,09,19,16,35,19.20
2010,09,19,16,36,19.20
2010,09,19,16,37,19.20
2010,09,19,16,38,19.10
2010,09,19,16,39,19.10
2010,09,19,16,40,19.10
2010,09,19,16,41,19.10
2010,09,19,16,42,19.00
2010,09,19,16,43,19.00
2010,09,19,16,44,19.00
2010,09,19,16,45,19.00
2010,09,19,16,46,19.00
2010,09,19,16,47,19.00
2010,09,19,16,48,19.00
2010,09,19,16,49,19.00
2010,09,19,16,50,19.00
2010,09,19,16,51,19.00
2010,09,19,16,52,19.00
2010,09,19,16,53,19.00
2010,09,19,16,54,19.00
2010,09,19,16,55,19.00
2010,09,19,16,56,19.00
2010,09,19,16,57,19.00
2010,09,19,16,58,19.00
2010,09,19,16,59,19.00
2010,09,19,17,00,19.10
2010,09,19,17,01,19.10
2010,09,19,17,02,19.10
2010,09,19,17,03,19.10
2010,09,19,17,04,19.10
2010,09,19,17,05,19.10
2010,09,19,17,06,19.10
2010,09,19,17,07,19.10
2010,09,19,17,08,19.10
2010,09,19,17,09,19.00
2010,09,19,17,10,19.00
2010,09,19,17,11,18.90
2010,09,19,17,12,18.90
2010,09,19,17,13,18.90
2010,09,19,17,14,18.80
2010,09,19,17,15,18.80
2010,09,19,17,16,18.80
2010,09,19,17,17,18.80
2010,09,19,17,18,18.80
2010,09,19,17,19,18.80
2010,09,19,17,20,18.80
2010,09,19,17,21,18.80
2010,09,19,17,22,18.80
2010,09,19,17,23,18.80
2010,09,19,17,24,18.70
2010,09,19,17,25,18.70
2010,09,19,17,26,18.70
2010,09,19,17,27,18.60
2010,09,19,17,28,18.60
2010,09,19,17,29,18.60
2010,09,19,17,30,18.60
2010,09,19,17,31,18.60
2010,09,19,17,32,18.50
2010,09,19,17,33,18.50
2010,09,19,17,34,18.50
2010,09,19,17,35,18.40
2010,09,19,17,36,18.40
2010,09,19,17,37,18.40
2010,09,19,17,38,18.40
2010,09,19,17,39,18.40
2010,09,19,17,40,18.40
2010,09,19,17,41,18.40
2010,09,19,17,42,18.40
2010,09,19,17,43,18.40
2010,09,19,17,44,18.40
2010,09,19,17,45,18.40
2010,09,19,17,46,18.40
2010,09,19,17,47,18.50
2010,09,19,17,48,18.50
2010,09,19,17,49,18.50
2010,09,19,17,50,18.50
2010,09,19,17,51,18.40
2010,09,19,17,52,18.40
2010,09,19,17,53,18.40
2010,09,19,17,54,18.40
2010,09,19,17,55,18.40
2010,09,19,17,56,18.30
2010,09,19,17,57,18.30
2010,09,19,17,58,18.20
2010,09,19,17,59,18.20
2010,09,19,18,00,18.20
2010,09,19,18,01,18.20
2010,09,19,18,02,18.20
2010,09,19,18,03,18.20
2010,09,19,18,04,18.20
2010,09,19,18,05,18.10
2010,09,19,18,06,18.10
2010,09,19,18,07,18.10
2010,09,19,18,08,18.10
2010,09,19,18,09,18.10
2010,09,19,18,10,18.10
2010,09,19,18,11,18.00
2010,09,19,18,12,18.00
2010,09,19,18,13,18.00
2010,09,19,18,14,18.00
2010,09,19,18,15,18.10
2010,09,19,18,16,18.10
2010,09,19,18,17,18.10
2010,09,19,18,18,18.20
2010,09,19,18,19,18.20
2010,09,19,18,20,18.30
2010,09,19,18,21,18.30
2010,09,19,18,22,18.40
2010,09,19,18,23,18.40
2010,09,19,18,24,18.40
2010,09,19,18,25,18.50
2010,09,19,18,26,18.50
2010,09,19,18,27,18.50
2010,09,19,18,28,18.60
2010,09,19,18,29,18.60
2010,09,19,18,30,18.60
2010,09,19,18,31,18.60
2010,09,19,18,32,18.60
2010,09,19,18,33,18.60
2010,09,19,18,34,18.60
2010,09,19,18,35,18.60
2010,09,19,18,36,18.60
2010,09,19,18,37,18.60
2010,09,19,18,38,18.50
2010,09,19,18,39,18.50
2010,09,19,18,40,18.50
2010,09,19,18,41,18.50
2010,09,19,18,42,18.50
2010,09,19,18,43,18.50
2010,09,19,18,44,18.50
2010,09,19,18,45,18.60
2010,09,19,18,46,18.60
2010,09,19,18,47,18.50
2010,09,19,18,48,18.50
2010,09,19,18,49,18.40
2010,09,19,18,50,18.40
2010,09,19,18,51,18.30
2010,09,19,18,52,18.30
2010,09,19,18,53,18.20
2010,09,19,18,54,18.20
2010,09,19,18,55,18.20
2010,09,19,18,56,18.10
2010,09,19,18,57,18.00
2010,09,19,18,58,18.00
2010,09,19,18,59,17.90
2010,09,19,19,00,17.90
2010,09,19,19,01,17.90
2010,09,19,19,02,17.90
2010,09,19,19,03,17.90
2010,09,19,19,04,17.80
2010,09,19,19,05,17.80
2010,09,19,19,06,17.80
2010,09,19,19,07,17.80
2010,09,19,19,08,17.80
2010,09,19,19,09,17.80
2010,09,19,19,10,17.70
2010,09,19,19,11,17.70
2010,09,19,19,12,17.70
2010,09,19,19,13,17.60
2010,09,19,19,14,17.60
2010,09,19,19,15,17.60
2010,09,19,19,16,17.50
2010,09,19,19,17,17.50
2010,09,19,19,18,17.40
2010,09,19,19,19,17.40
2010,09,19,19,20,17.30
2010,09,19,19,21,17.30
2010,09,19,19,22,17.30
2010,09,19,19,23,17.20
2010,09,19,19,24,17.20
2010,09,19,19,25,17.10
2010,09,19,19,26,17.10
2010,09,19,19,27,17.00
2010,09,19,19,28,17.00
2010,09,19,19,29,16.90
2010,09,19,19,30,16.90
2010,09,19,19,31,16.80
2010,09,19,19,32,16.80
2010,09,19,19,33,16.70
2010,09,19,19,34,16.60
2010,09,19,19,35,16.60
2010,09,19,19,36,16.50
2010,09,19,19,37,16.50
2010,09,19,19,38,16.40
2010,09,19,19,39,16.40
2010,09,19,19,40,16.30
2010,09,19,19,41,16.30
2010,09,19,19,42,16.30
2010,09,19,19,43,16.20
2010,09,19,19,44,16.20
2010,09,19,19,45,16.20
2010,09,19,19,46,16.10
2010,09,19,19,47,16.10
2010,09,19,19,48,16.00
2010,09,19,19,49,16.00
2010,09,19,19,50,15.90
2010,09,19,19,51,15.90
2010,09,19,19,52,15.80
2010,09,19,19,53,15.80
2010,09,19,19,54,15.80
2010,09,19,19,55,15.80
2010,09,19,19,56,15.70
2010,09,19,19,57,15.70
2010,09,19,19,58,15.70
2010,09,19,19,59,15.70
2010,09,19,20,00,15.70
2010,09,19,20,01,15.70
2010,09,19,20,02,15.70
2010,09,19,20,03,15.60
2010,09,19,20,04,15.60
2010,09,19,20,05,15.60
2010,09,19,20,06,15.60
2010,09,19,20,07,15.60
2010,09,19,20,08,15.50
2010,09,19,20,09,15.50
2010,09,19,20,10,15.40
2010,09,19,20,11,15.40
2010,09,19,20,12,15.30
2010,09,19,20,13,15.30
2010,09,19,20,14,15.30
2010,09,19,20,15,15.30
2010,09,19,20,16,15.30
2010,09,19,20,17,15.30
2010,09,19,20,18,15.30
2010,09,19,20,19,15.30
2010,09,19,20,20,15.30
2010,09,19,20,21,15.30
2010,09,19,20,22,15.30
2010,09,19,20,23,15.30
2010,09,19,20,24,15.30
2010,09,19,20,25,15.20
2010,09,19,20,26,15.20
2010,09,19,20,27,15.20
2010,09,19,20,28,15.20
2010,09,19,20,29,15.10
2010,09,19,20,30,15.10
2010,09,19,20,31,15.00
2010,09,19,20,32,15.00
2010,09,19,20,33,15.00
2010,09,19,20,34,15.00
2010,09,19,20,35,15.00
2010,09,19,20,36,15.00
2010,09,19,20,37,15.00
2010,09,19,20,38,15.00
2010,09,19,20,39,14.90
2010,09,19,20,40,14.90
2010,09,19,20,41,14.90
2010,09,19,20,42,14.80
2010,09,19,20,43,14.70
2010,09,19,20,44,14.70
2010,09,19,20,45,14.70
2010,09,19,20,46,14.60
2010,09,19,20,47,14.60
2010,09,19,20,48,14.60
2010,09,19,20,49,14.60
2010,09,19,20,50,14.60
2010,09,19,20,51,14.60
2010,09,19,20,52,14.50
2010,09,19,20,53,14.50
2010,09,19,20,54,14.50
2010,09,19,20,55,14.50
2010,09,19,20,56,14.40
2010,09,19,20,57,14.40
2010,09,19,20,58,14.40
2010,09,19,20,59,14.40
2010,09,19,21,00,14.40
2010,09,19,21,01,14.40
2010,09,19,21,02,14.40
2010,09,19,21,03,14.40
2010,09,19,21,04,14.40
2010,09,19,21,05,14.40
2010,09,19,21,06,14.40
2010,09,19,21,07,14.40
2010,09,19,21,08,14.40
2010,09,19,21,09,14.40
2010,09,19,21,10,14.30
2010,09,19,21,11,14.30
2010,09,19,21,12,14.30
2010,09,19,21,13,14.30
2010,09,19,21,14,14.30
2010,09,19,21,15,14.30
2010,09,19,21,16,14.30
2010,09,19,21,17,14.20
2010,09,19,21,18,14.20
2010,09,19,21,19,14.20
2010,09,19,21,20,14.30
2010,09,19,21,21,14.30
2010,09,19,21,22,14.30
2010,09,19,21,23,14.30
2010,09,19,21,24,14.40
2010,09,19,21,25,14.40
2010,09,19,21,26,14.40
2010,09,19,21,27,14.40
2010,09,19,21,28,14.40
2010,09,19,21,29,14.50
2010,09,19,21,30,14.50
2010,09,19,21,31,14.60
2010,09,19,21,32,14.60
2010,09,19,21,33,14.60
2010,09,19,21,34,14.60
2010,09,19,21,35,14.60
2010,09,19,21,36,14.60
2010,09,19,21,37,14.60
2010,09,19,21,38,14.50
2010,09,19,21,39,14.50
2010,09,19,21,40,14.50
2010,09,19,21,41,14.50
2010,09,19,21,42,14.50
2010,09,19,21,43,14.50
2010,09,19,21,44,14.50
2010,09,19,21,45,14.50
2010,09,19,21,46,14.60
2010,09,19,21,47,14.60
2010,09,19,21,48,14.60
2010,09,19,21,49,14.70
2010,09,19,21,50,14.70
2010,09,19,21,51,14.70
2010,09,19,21,52,14.70
2010,09,19,21,53,14.70
2010,09,19,21,54,14.70
2010,09,19,21,55,14.70
2010,09,19,21,56,14.60
2010,09,19,21,57,14.60
2010,09,19,21,58,14.60
2010,09,19,21,59,14.50
2010,09,19,22,00,14.50
2010,09,19,22,01,14.40
2010,09,19,22,02,14.40
2010,09,19,22,03,14.40
2010,09,19,22,04,14.40
2010,09,19,22,05,14.30
2010,09,19,22,06,14.30
2010,09,19,22,07,14.20
2010,09,19,22,08,14.20
2010,09,19,22,09,14.20
2010,09,19,22,10,14.10
2010,09,19,22,11,14.10
2010,09,19,22,12,14.10
2010,09,19,22,13,14.10
2010,09,19,22,14,14.00
2010,09,19,22,15,14.00
2010,09,19,22,16,14.10
2010,09,19,22,17,14.10
2010,09,19,22,18,14.00
2010,09,19,22,19,14.00
2010,09,19,22,20,13.90
2010,09,19,22,21,13.90
2010,09,19,22,22,13.90
2010,09,19,22,23,13.90
2010,09,19,22,24,13.90
2010,09,19,22,25,13.90
2010,09,19,22,26,13.80
2010,09,19,22,27,13.80
2010,09,19,22,28,13.80
2010,09,19,22,29,13.70
2010,09,19,22,30,13.70
2010,09,19,22,31,13.60
2010,09,19,22,32,13.60
2010,09,19,22,33,13.60
2010,09,19,22,34,13.60
2010,09,19,22,35,13.60
2010,09,19,22,36,13.60
2010,09,19,22,37,13.60
2010,09,19,22,38,13.60
2010,09,19,22,39,13.60
2010,09,19,22,40,13.60
2010,09,19,22,41,13.50
2010,09,19,22,42,13.50
2010,09,19,22,43,13.40
2010,09,19,22,44,13.40
2010,09,19,22,45,13.40
2010,09,19,22,46,13.30
2010,09,19,22,47,13.30
2010,09,19,22,48,13.30
2010,09,19,22,49,13.40
2010,09,19,22,50,13.50
2010,09,19,22,51,13.50
2010,09,19,22,52,13.60
2010,09,19,22,53,13.60
2010,09,19,22,54,13.60
2010,09,19,22,55,13.60
2010,09,19,22,56,13.60
2010,09,19,22,57,13.70
2010,09,19,22,58,13.70
2010,09,19,22,59,13.80
2010,09,19,23,00,13.80
2010,09,19,23,01,13.80
2010,09,19,23,02,13.70
2010,09,19,23,03,13.70
2010,09,19,23,04,13.70
2010,09,19,23,05,13.60
2010,09,19,23,06,13.60
2010,09,19,23,07,13.50
2010,09,19,23,08,13.50
2010,09,19,23,09,13.40
2010,09,19,23,10,13.40
2010,09,19,23,11,13.40
2010,09,19,23,12,13.30
2010,09,19,23,13,13.30
2010,09,19,23,14,13.30
2010,09,19,23,15,13.20
2010,09,19,23,16,13.20
2010,09,19,23,17,13.20
2010,09,19,23,18,13.10
2010,09,19,23,19,13.10
2010,09,19,23,20,13.10
2010,09,19,23,21,13.10
2010,09,19,23,22,13.20
2010,09,19,23,23,13.20
2010,09,19,23,24,13.20
2010,09,19,23,25,13.20
2010,09,19,23,26,13.20
2010,09,19,23,27,13.20
2010,09,19,23,28,13.20
2010,09,19,23,29,13.20
2010,09,19,23,30,13.20
2010,09,19,23,31,13.20
2010,09,19,23,32,13.30
2010,09,19,23,33,13.30
2010,09,19,23,34,13.40
2010,09,19,23,35,13.40
2010,09,19,23,36,13.50
2010,09,19,23,37,13.50
2010,09,19,23,38,13.50
2010,09,19,23,39,13.50
2010,09,19,23,40,13.50
2010,09,19,23,41,13.50
2010,09,19,23,42,13.50
2010,09,19,23,43,13.50
2010,09,19,23,44,13.50
2010,09,19,23,45,13.50
2010,09,19,23,46,13.50
2010,09,19,23,47,13.50
2010,09,19,23,48,13.50
2010,09,19,23,49,13.50
2010,09,19,23,50,13.50
2010,09,19,23,51,13.60
2010,09,19,23,52,13.60
2010,09,19,23,53,13.60
2010,09,19,23,54,13.60
2010,09,19,23,55,13.60
2010,09,19,23,56,13.60
2010,09,19,23,57,13.50
2010,09,19,23,58,13.50
2010,09,19,23,59,13.50
